Location: Johnson City
(36.3130°N, 82.3540°W)
Time: 05:49:35
(UTC-05:00)

Tiangong 2 - Visible Passes

Search period start: 18 February 2018 00:00
Search period end: 28 February 2018 00:00
Orbit: 385 x 388 km, 42.8° (Epoch: 17 February)

Date Brightness Start Highest point End Pass type
(mag) Time Alt. Az. Time Alt. Az. Time Alt. Az.
18 Feb 2.6 18:43:41 10° NW 18:46:22 24° N 18:49:03 10° ENE visible
18 Feb 3.8 20:20:25 10° WNW 20:21:25 18° NW 20:21:25 18° NW visible
19 Feb 1.9 19:21:33 10° NW 19:24:31 36° NNE 19:25:23 30° NE visible
20 Feb 2.0 19:59:17 10° WNW 20:01:42 48° WNW 20:01:42 48° WNW visible
21 Feb 1.3 19:00:21 10° WNW 19:03:30 56° NNE 19:05:49 16° E visible
21 Feb 4.4 20:37:33 10° W 20:38:06 13° W 20:38:06 13° W visible
22 Feb 2.1 19:38:14 10° WNW 19:41:16 42° SSW 19:42:20 29° SSE visible
23 Feb 1.2 18:39:10 10° WNW 18:42:21 81° SSW 18:45:30 10° ESE visible
23 Feb 4.1 20:17:39 10° WSW 20:18:43 11° SW 20:19:00 11° SW visible
24 Feb 3.4 19:17:26 10° W 19:19:56 21° SW 19:22:26 10° SSE visible
26 Feb 4.3 18:57:36 10° WSW 18:58:31 11° SW 18:59:25 10° SSW visible
